KB0OJV Weather Reports


time (UTC)temp
F
wind
direction
speed
knots
gust
knots
rain 1hr
in
rain 24hr
in
rain mn
in
humidity
%
barometer
mb
20260504050504 46 180 0.9 2.6 0.00 0.00 0.00 66 1002.3
20260504050013 46 182 0.9 2.6 0.00 0.00 0.00 67 1002.4
20260504045503 47 169 1.7 2.6 0.00 0.00 0.00 66 1002.5
20260504045005 47 177 0.9 2.6 0.00 0.00 0.00 64 1002.6
20260504044512 47 173 0.0 1.7 0.00 0.00 0.00 63 1002.7
20260504044003 47 189 0.0 1.7 0.00 0.00 0.00 65 1002.7
20260504043508 47 192 0.9 3.5 0.00 0.00 0.00 65 1002.9
20260504043011 48 202 0.9 3.5 0.00 0.00 0.00 64 1002.9
20260504042506 48 200 1.7 3.5 0.00 0.00 0.00 64 1003.0
20260504042009 48 203 0.9 3.5 0.00 0.00 0.00 63 1003.1
20260504041515 48 193 1.7 2.6 0.00 0.00 0.00 63 1003.2
20260504041003 48 203 0.9 1.7 0.00 0.00 0.00 61 1003.3
20260504040510 49 196 0.0 0.0 0.00 0.00 0.00 61 1003.4
20260504040025 49 196 0.0 0.9 0.00 0.00 0.00 58 1003.5
20260504035509 49 196 0.0 0.9 0.00 0.00 0.00 57 1003.6
20260504035007 49 196 0.0 0.9 0.00 0.00 0.00 1003.7
20260504034510 50 251 0.0 0.0 0.00 0.00 0.00 1003.8
20260504034003 50 251 0.0 0.0 0.00 0.00 0.00 1003.8
20260504033507 50 251 0.0 0.0 0.00 0.00 0.00 57 1003.9
20260504033013 50 251 0.0 0.0 0.00 0.00 0.00 57 1003.9
20260504032506 51 251 0.0 0.0 0.00 0.00 0.00 57 1004.0
20260504032007 51 251 0.0 0.0 0.00 0.00 0.00 57 1004.1
20260504031513 51 251 0.0 0.0 0.00 0.00 0.00 56 1004.2
20260504031006 52 251 0.0 0.0 0.00 0.00 0.00 55 1004.2
20260504030506 52 251 0.0 0.0 0.00 0.00 0.00 1004.2
20260504030009 52 251 0.0 0.0 0.00 0.00 0.00 1004.3
20260504025507 53 251 0.0 0.0 0.00 0.00 0.00 51 1004.3
20260504025014 53 251 0.0 0.0 0.00 0.00 0.00 51 1004.3
20260504024525 54 251 0.0 0.0 0.00 0.00 0.00 51 1004.3
20260504024005 54 251 0.0 0.0 0.00 0.00 0.00 50 1004.3
20260504023502 55 251 0.0 0.0 0.00 0.00 0.00 49 1004.3
20260504023011 55 251 0.0 0.0 0.00 0.00 0.00 48 1004.3
20260504022505 56 251 0.0 0.0 0.00 0.00 0.00 47 1004.3
20260504022007 56 251 0.0 0.0 0.00 0.00 0.00 47 1004.3
20260504021513 57 251 0.0 0.0 0.00 0.00 0.00 45 1004.3
20260504021006 58 251 0.0 0.0 0.00 0.00 0.00 46 1004.4
20260504020507 59 251 0.0 0.0 0.00 0.00 0.00 43 1004.3
20260504020020 59 0.0 0.0 0.00 0.00 0.00 42 1004.3
20260504015507 60 0.0 0.0 0.00 0.00 0.00 42 1004.3
20260504015008 61 0.0 0.0 0.00 0.00 0.00 40 1004.4
20260504014522 61 0.0 0.0 0.00 0.00 0.00 39 1004.4
20260504014009 62 262 2.6 0.0 0.00 0.00 0.00 34 1004.4
20260504013513 62 0.0 0.0 0.00 0.00 0.00 34 1004.5
20260504013034 63 1.7 2.6 0.00 0.00 0.00 39 1004.5
20260504012509 64 243 1.7 2.6 0.00 0.00 0.00 32 1004.4
20260504012003 64 258 0.9 3.5 0.00 0.00 0.00 33 1004.5
20260504011508 64 261 1.7 3.5 0.00 0.00 0.00 31 1004.5
20260504011007 65 269 1.7 3.5 0.00 0.00 0.00 31 1004.5
20260504010506 65 257 2.6 5.2 0.00 0.00 0.00 31 1004.5
20260504010016 65 259 2.6 6.1 0.00 0.00 0.00 31 1004.6
20260504005507 65 249 3.5 8.7 0.00 0.00 0.00 31 1004.6
20260504005009 65 285 5.2 8.7 0.00 0.00 0.00 30 1004.6
20260504004534 66 286 5.2 7.8 0.00 0.00 0.00 29 1004.5
20260504004010 66 269 3.5 7.0 0.00 0.00 0.00 30 1004.5
20260504003509 67 256 3.5 7.0 0.00 0.00 0.00 29 1004.6
20260504003022 67 277 3.5 8.7 0.00 0.00 0.00 30 1004.6
20260504002511 67 266 5.2 9.6 0.00 0.00 0.00 29 1004.7
20260504002006 68 265 5.2 9.6 0.00 0.00 0.00 28 1004.8
20260504001530 68 269 6.1 9.6 0.00 0.00 0.00 28 1004.8
20260504001005 69 260 6.1 10.4 0.00 0.00 0.00 27 1004.8
20260504000504 69 269 7.8 11.3 0.00 0.00 0.00 27 1004.8
20260504000016 69 254 6.1 11.3 0.00 0.00 0.00 26 1004.8
20260503235505 70 266 6.1 10.4 0.00 0.00 0.00 26 1004.7
20260503235005 70 304 7.0 10.4 0.00 0.00 0.00 26 1004.7
20260503234518 70 268 4.3 9.6 0.00 0.00 0.00 24 1004.7
20260503234009 70 288 6.1 10.4 0.00 0.00 0.00 24 1004.8
20260503233509 70 294 7.0 11.3 0.00 0.00 0.00 26 1004.9
20260503233021 71 276 7.0 11.3 0.00 0.00 0.00 25 1004.8
20260503232513 71 272 6.1 13.0 0.00 0.00 0.00 27 1004.9
20260503232011 71 265 6.1 13.0 0.00 0.00 0.00 26 1004.9
20260503231528 71 271 8.7 13.0 0.00 0.00 0.00 27 1005.0
20260503231009 71 290 5.2 13.9 0.00 0.00 0.00 27 1004.9
20260503230511 71 252 9.6 13.9 0.00 0.00 0.00 25 1005.0
20260503230014 71 242 7.0 13.9 0.00 0.00 0.00 27 1005.0
20260503225508 71 288 10.4 13.9 0.00 0.00 0.00 27 1004.9
20260503225006 71 292 7.0 11.3 0.00 0.00 0.00 27 1005.0
20260503224518 71 262 7.8 10.4 0.00 0.00 0.00 25 1005.1
20260503224008 71 273 5.2 10.4 0.00 0.00 0.00 23 1005.1
20260503223508 71 284 6.1 10.4 0.00 0.00 0.00 22 1005.0
20260503223020 71 5 2.6 10.4 0.00 0.00 0.00 24 1005.2
20260503222510 71 333 3.5 13.0 0.00 0.00 0.00 24 1005.2
20260503222010 71 286 7.0 13.9 0.00 0.00 0.00 23 1005.3
20260503221523 72 308 7.8 13.9 0.00 0.00 0.00 24 1005.3
20260503221012 72 302 6.1 10.4 0.00 0.00 0.00 24 1005.2
20260503220510 72 275 3.5 12.2 0.00 0.00 0.00 24 1005.2
20260503220027 72 320 7.8 13.9 0.00 0.00 0.00 29 1005.2
20260503215510 72 271 8.7 13.9 0.00 0.00 0.00 25 1005.2
20260503215006 72 275 6.1 13.9 0.00 0.00 0.00 26 1005.2
20260503214528 72 350 5.2 13.9 0.00 0.00 0.00 25 1005.2
20260503214006 72 352 3.5 10.4 0.00 0.00 0.00 26 1005.2
20260503213506 71 295 7.8 12.2 0.00 0.00 0.00 26 1005.3
20260503213029 71 321 3.5 12.2 0.00 0.00 0.00 26 1005.3
20260503212507 71 306 6.1 13.0 0.00 0.00 0.00 23 1005.3
20260503212013 71 344 7.0 13.0 0.00 0.00 0.00 24 1005.3
20260503211521 71 323 4.3 13.0 0.00 0.00 0.00 26 1005.3
20260503211010 72 271 7.0 13.0 0.00 0.00 0.00 24 1005.3
20260503210509 72 293 8.7 16.5 0.00 0.00 0.00 25 1005.5
20260503210025 71 273 9.6 16.5 0.00 0.00 0.00 25 1005.4
20260503205514 72 290 6.1 16.5 0.00 0.00 0.00 25 1005.3
20260503205012 71 259 9.6 16.5 0.00 0.00 0.00 27 1005.5
20260503204527 71 277 9.6 13.0 0.00 0.00 0.00 27 1005.5
20260503204009 71 284 7.8 15.6 0.00 0.00 0.00 28 1005.5
20260503203510 71 313 6.1 15.6 0.00 0.00 0.00 26 1005.6
20260503203018 71 311 6.1 13.0 0.00 0.00 0.00 26 1005.6
20260503202511 71 342 7.8 12.2 0.00 0.00 0.00 28 1005.6
20260503202011 71 300 7.0 15.6 0.00 0.00 0.00 26 1005.6
20260503201518 71 275 4.3 15.6 0.00 0.00 0.00 28 1005.7
20260503201007 71 338 6.1 17.4 0.00 0.00 0.00 29 1005.8
20260503200510 71 272 8.7 18.2 0.00 0.00 0.00 28 1005.8
20260503200026 71 308 11.3 17.4 0.00 0.00 0.00 27 1005.9
20260503195510 71 280 7.0 13.0 0.00 0.00 0.00 30 1006.0
20260503195009 71 307 7.0 12.2 0.00 0.00 0.00 31 1006.0
20260503194527 71 257 7.8 12.2 0.00 0.00 0.00 31 1006.0
20260503194005 71 276 7.0 14.8 0.00 0.00 0.00 32 1006.1
20260503193507 71 352 8.7 14.8 0.00 0.00 0.00 33 1006.0
20260503193018 71 302 5.2 13.0 0.00 0.00 0.00 32 1006.0
20260503192507 71 286 8.7 13.9 0.00 0.00 0.00 35 1006.1
20260503192012 71 288 7.8 13.9 0.00 0.00 0.00 31 1006.0
20260503191522 71 296 9.6 15.6 0.00 0.00 0.00 32 1005.9
20260503191010 71 311 10.4 15.6 0.00 0.00 0.00 32 1006.0
20260503190507 70 337 5.2 12.2 0.00 0.00 0.00 34 1006.0
20260503190037 71 298 3.5 16.5 0.00 0.00 0.00 36 1006.1
20260503185508 70 286 12.2 16.5 0.00 0.00 0.00 35 1006.1
20260503185011 70 313 10.4 13.9 0.00 0.00 0.00 34 1006.0
20260503184520 70 344 7.0 15.6 0.00 0.00 0.00 37 1006.2
20260503184009 69 335 5.2 15.6 0.00 0.00 0.00 34 1006.2
20260503183512 69 297 4.3 14.8 0.00 0.00 0.00 33 1006.2
20260503183034 70 344 7.8 13.0 0.00 0.00 0.00 37 1006.2
20260503182511 70 327 7.8 13.9 0.00 0.00 0.00 35 1006.2
20260503182009 70 317 8.7 13.9 0.00 0.00 0.00 39 1006.3
20260503181537 69 273 9.6 15.6 0.00 0.00 0.00 37 1006.3
20260503181009 69 283 8.7 15.6 0.00 0.00 0.00 40 1006.4
20260503180507 69 352 4.3 15.6 0.00 0.00 0.00 35 1006.4
20260503180039 69 22 4.3 15.6 0.00 0.00 0.00 37 1006.5
20260503175516 69 325 8.7 13.9 0.00 0.00 0.00 38 1006.4
20260503175007 69 269 3.5 13.0 0.00 0.00 0.00 38 1006.4
20260503174525 68 343 6.1 14.8 0.00 0.00 0.00 37 1006.6
20260503174011 68 323 6.1 14.8 0.00 0.00 0.00 38 1006.5
20260503173508 68 282 5.2 13.0 0.00 0.00 0.00 38 1006.5
20260503173026 68 346 6.1 20.9 0.00 0.00 0.00 37 1006.6
20260503172512 68 311 8.7 20.9 0.00 0.00 0.00 37 1006.6
20260503172010 68 321 8.7 12.2 0.00 0.00 0.00 36 1006.8
20260503171526 68 306 9.6 13.0 0.00 0.00 0.00 37 1006.7
20260503171008 67 350 5.2 13.9 0.00 0.00 0.00 38 1006.7
20260503170509 66 315 6.1 15.6 0.00 0.00 0.00 38 1006.7
20260503151002 62 316 5.2 10.4 0.00 0.00 0.00 44 1006.2
20260503131005 54 221 3.5 7.0 0.00 0.00 0.00 56 1005.8
20260503110516 49 203 1.7 4.3 0.00 0.00 0.00 59 1004.9
20260503090507 56 244 1.7 12.2 0.00 0.00 0.00 48 1005.7
20260503081515 54 192 3.5 6.1 0.00 0.00 0.00 56 1006.0
20260503081009 54 199 2.6 6.1 0.00 0.00 0.00 56 1006.1
20260503072508 54 189 1.7 7.0 0.00 0.00 0.00 57 1006.9
20260503072008 54 215 1.7 7.8 0.00 0.00 0.00 58 1006.9
20260503071512 53 194 4.3 7.8 0.00 0.00 0.00 60 1007.0
20260503071007 54 211 4.3 11.3 0.00 0.00 0.00 61 1007.0
20260503070508 54 234 4.3 11.3 0.00 0.00 0.00 61 1007.0